Location: Bucharest
(44.4268°N, 26.1025°E)
Time: 17:44:55
(UTC+03:00)

O/OREOS (USA 219) - Visible Passes

Search period start: 02 July 2022 00:00
Search period end: 12 July 2022 00:00
Orbit: 621 x 646 km, 72.0° (Epoch: 22 May)

Date Brightness Start Highest point End Pass type
(mag) Time Alt. Az. Time Alt. Az. Time Alt. Az.
02 Jul ? 00:52:25 10° N 00:56:40 35° ENE 00:58:22 26° E visible
02 Jul ? 02:32:04 10° NW 02:35:47 27° W 02:35:47 27° W visible
02 Jul ? 23:37:12 10° NNE 23:38:35 11° NE 23:39:57 10° ENE visible
03 Jul ? 01:14:14 10° NNW 01:18:52 73° ENE 01:19:40 58° SE visible
03 Jul ? 02:55:43 10° WNW 02:57:05 12° W 02:57:05 12° W visible
03 Jul ? 23:57:41 10° N 00:01:09 20° NE 00:03:34 14° E visible
04 Jul ? 01:36:23 10° NNW 01:40:52 52° WSW 01:40:59 51° WSW visible
05 Jul ? 00:19:10 10° N 00:23:30 38° ENE 00:24:57 30° E visible
05 Jul ? 01:59:00 10° NW 02:02:22 24° W 02:02:22 24° W visible
05 Jul ? 23:03:36 10° NNE 23:05:28 12° NE 23:07:20 10° ENE visible
06 Jul ? 00:41:02 10° NNW 00:45:41 81° ENE 00:46:21 64° SE visible
06 Jul ? 02:23:07 10° W 02:23:47 11° W 02:23:47 11° W visible
06 Jul ? 23:24:23 10° N 23:28:01 22° NE 23:30:22 15° E visible
07 Jul ? 01:03:14 10° NW 01:07:39 46° WSW 01:07:48 46° WSW visible
07 Jul ? 23:45:56 10° NNW 23:50:21 42° ENE 23:51:51 32° ESE visible
08 Jul ? 01:25:57 10° NW 01:29:17 22° W 01:29:17 22° W visible
08 Jul ? 22:30:08 10° NNE 22:32:22 13° NE 22:34:35 10° ENE visible
09 Jul ? 00:07:51 10° NNW 00:12:30 90° E 00:13:21 59° SSE visible
09 Jul ? 22:51:06 10° N 22:54:52 24° NE 22:57:28 15° E visible
10 Jul ? 00:30:06 10° NW 00:34:27 41° WSW 00:34:54 40° WSW visible
10 Jul ? 23:12:42 10° NNW 23:17:11 47° ENE 23:19:03 30° ESE visible
11 Jul ? 00:52:57 10° NW 00:56:14 20° W 00:56:29 19° WSW visible
11 Jul ? 21:56:43 10° NNE 21:59:15 14° NE 22:01:47 10° E visible
11 Jul ? 23:34:40 10° NNW 23:39:18 82° WSW 23:40:39 46° SSE visible
